IUS DEB, 43366

Orbit data source: Space-Track

IUS DEB, 43366 is space debris originally from a launch on Fri, 23 Jul 1999 UTC launched from the Air Force Eastern Test Range (AFETR). Debris objects in space refer to the collection of defunct objects orbiting the Earth. Examples of debris include non-operational satellites, rocket bodies, and fragments generated from explosions, collisions, or faulty payload assembly.

Loading next visibility...
Identifier
43366, 1999-040P
Orbit
Active
Last TLE update
3 days ago
Origin
Manufacturer
Boeing/Kent
Mission
Spacecraft
Bus & Motor
Unknown
Mass
Unknown
Launch date (UTC)
1999-07-23 (26 years ago)
Launch vehicle
Unknown
Launch site
Air Force Eastern Test Range (AFETR)
Object type
Payload
Rocket body
Debris
Shape & HBR
Unknown
Radar Cross Section
Small (<0.1 m²)

Expand to show TLE details & history

TLE from 3 days ago
0 IUS DEB
1 43366U 99040P   25180.11568352  .00001093  00000-0  51929-2 0  9992
2 43366  28.1171 122.0973 3819394 146.2761 245.2833  7.02847789243415
Epoch: 2025-06-29T02:46Z
TLE epoch observation values (Epoch: 2025-06-29T02:46:35.056Z)
Latitude
-0°
Longitude
163.00675°
Altitude
8,028.229 km
Speed
4.552 km/s
True Right ascension
08h 08m 23s
True Declination
0° 00' 00"
Sunlit
Object was in daylight at epoch
Visualization orbit readout
Latitude
-28.14766°
Longitude
65.31623°
Altitude
5,260.829 km
Speed
5.822 km/s
Apparent Right ascension
23h 43m 39s
Apparent Declination
-46° 55' 06"
Sunlit
Object is in daylight
Visualization observer readout
Local Sidereal Time
05:39:03
Azimuth
230.2° WSW
Elevation
-27.269°
Doppler factor
1
Orbital elements
Apogee altitude
9,535.6 km
Perigee altitude
739.146 km
Semi-major axis
11,515.51 km
Eccentricity
0.38194
Inclination
28.1171°
RAAN
122.0973°
Arg. of periapsis
146.2761°
True anomaly
Unknown
Mean anomaly
245.2833°
Eccentric anomaly
Unknown
Mean motion
1.75638 °/min
Orbital period
204.97 mins
BSTAR
0.0051929
Loading maneuver chart data...
Loading SW <> Apogee altitude chart data...
Loading historical data...
Loading historical data...
Loading historical data...
Loading historical data...
Loading historical data...
Loading historical data...
Loading historical data...

IUS DEB Visibility forecast

Observer location: undefined°, undefined°

Span
Click to sort rows by Start time (UTC) header in descending order
Start Az.
Max El. time (UTC)
Max El. Az.
Max El.
End time (UTC)
End Az.
78 mins2025-07-01 18:53:22.481Z193.415° SSW2025-07-01 19:45:22.481Z148.951° SSE25.673°2025-07-01 20:11:22.481Z100.895° ESE
54 mins2025-07-01 22:58:22.481Z233.911° WSW2025-07-01 23:40:22.481Z170.321° S37.348°2025-07-01 23:52:22.481Z102.802° ESE
18 mins2025-07-02 03:08:22.481Z260.44° W2025-07-02 03:21:22.481Z195.57° SSW31.294°2025-07-02 03:26:22.481Z137.593° SSE
|